Presure
187 178 203 183 173 187 179 193 160 221 181 192 241 208 201 371 331 307 279 277 263 256 250 250 255 266 184 290 269 272 266 258 253 243 214 126 151 147 132 177 139 134 130 133 138
152 165 141 158 167 175 180 169 177 146 152 156 182 192 197 239 195 307 297 279 270 259 265 249 245 253 265 287 290 237 204 265 261 211 240 209 138 140 185 170 133 132 132 133 132
167 169 171 188 183 163 167 175 186 194 194 196 149 189 189 214 229 219 302 299 285 279 270 258 254 243 246 249 253 254 283 264 258 255 245 242 243 244 139 143 142 145 135 130 138
175 156 178 161 164 181 182 161 179 184 190 212 207 186 201 222 209 183 208 274 301 289 276 273 260 257 253 241 249 249 244 243 243 286 254 244 239 152 239 192 140 138 283 145 253
178 162 173 161 157 159 188 181 166 190 184 190 157 180 200 183 202 202 199 224 223 246 292 279 272 268 260 258 252 241 246 256 255 239 251 282 263 246 241 234 231 227 228 148 129
152 164 179 161 157 161 150 167 191 167 194 185 161 198 189 191 192 189 194 193 204 222 201 247 267 291 281 267 258 256 245 235 255 258 250 223 222 230 266 250 241 225 225 233 240
175 169 159 163 166 164 172 158 176 190 192 197 206 207 200 196 197 180 204 179 216 220 204 232 245 236 299 284 275 265 261 257 237 255 255 245 260 208 210 226 253 242 223 222 238
155 139 172 150 166 142 158 171 173 185 166 168 182 186 169 158 201 165 168 197 202 215 218 198 233 204 239 280 289 274 265 262 256 245 241 241 255 253 318 251 146 146 227 224 217
162 138 160 150 137 143 170 146 138 175 198 193 176 186 174 182 209 176 169 189 209 215 207 191 197 204 235 265 248 297 276 268 259 256 252 236 245 244 188 198 254 248 289 239 227
156 136 140 149 163 164 158 170 170 158 187 165 170 171 173 183 195 205 181 170 197 187 213 211 207 198 191 220 209 270 318 289 275 262 257 252 251 235 243 237 250 262 273 295 301
151 153 156 121 148 153 172 143 164 172 152 151 171 195 204 162 193 196 218 183 205 187 226 196 175 163 222 199 187 253 263 283 296 286 269 258 253 248 252 245 240 232 251 265 256
135 152 160 160 129 135 165 132 147 165 160 162 164 158 163 161 183 188 205 201 178 214 226 174 149 192 169 220 233 198 256 259 276 283 312 284 263 253 247 249 248 250 242 247 250
140 130 152 148 144 160 155 164 182 169 147 175 165 209 196 173 162 175 186 145 213 170 202 196 202 194 157 208 204 244 228 259 263 277 283 323 294 268 254 248 248 252 252 246 246
162 150 165 160 138 129 151 156 137 164 173 167 191 168 209 192 188 177 207 165 202 196 203 178 213 188 211 183 170 226 213 217 259 265 279 283 321 298 278 266 255 250 252 259 254
133 137 137 159 159 139 154 176 154 171 157 167 157 181 162 184 193 172 198 165 227 174 191 209 140 212 189 177 135 223 245 219 258 258 270 278 278 319 287 283 269 264 259 253 256
139 151 134 158 137 151 123 138 150 149 171 161 154 186 161 148 179 192 167 168 177 210 170 191 204 143 207 197 216 222 236 217 258 254 261 270 278 276 304 283 271 274 265 260 257
147 149 142 140 144 145 140 158 126 149 186 163 159 151 193 181 148 174 186 214 190 192 189 199 171 202 178 188 200 188 235 251 258 256 253 263 268 276 298 286 277 267 268 268 264
122 143 137 129 168 159 169 129 155 160 166 145 182 170 145 180 181 190 180 199 211 211 216 168 197 199 182 227 210 229 233 250 259 255 259 265 268 276 285 295 277 266 260 257 255
156 135 144 157 143 159 148 159 168 163 171 171 166 161 162 211 195 217 174 161 170 209 168 201 176 204 187 181 184 194 240 245 262 257 255 260 273 272 282 298 286 271 261 258 247
149 131 153 152 161 139 145 175 147 166 171 170 160 171 168 158 163 159 174 199 167 172 170 162 171 211 212 196 191 253 244 250 265 268 256 263 266 278 278 290 285 275 266 257 256
141 129 156 149 164 168 165 153 159 163 156 170 166 180 143 178 171 150 209 190 203 194 167 205 193 213 176 189 259 197 244 257 275 269 267 272 261 292 277 293 282 275 265 267 270
146 171 153 155 156 160 167 160 180 191 163 190 179 166 159 151 183 181 207 188 217 181 142 199 203 168 212 216 203 250 257 259 273 273 272 272 262 288 272 296 284 274 259 262 253
153 157 151 170 174 168 172 167 137 184 173 178 202 164 197 199 201 167 201 184 198 177 160 210 192 175 218 211 258 247 254 265 280 288 277 276 281 254 281 282 287 270 260 253 244
149 158 159 186 171 178 168 189 172 188 155 171 175 188 184 185 185 189 207 204 208 198 189 189 184 194 171 226 257 227 260 271 285 288 290 284 275 275 285 276 291 267 259 254 249
167 168 164 178 174 188 166 179 200 198 207 157 188 175 176 182 178 192 213 203 178 174 163 191 202 214 168 221 257 257 264 278 286 283 294 301 276 283 281 280 291 269 255 251 243
176 161 168 148 161 153 197 214 193 144 206 180 188 193 199 184 148 181 200 192 184 191 205 171 216 215 159 233 265 258 257 282 290 308 303 293 290 294 282 279 280 279 255 248 242
158 184 184 162 191 188 226 157 184 207 180 173 183 194 158 195 196 174 191 173 188 205 205 183 204 231 224 182 273 243 268 289 288 319 312 303 299 289 285 281 285 272 255 245 241
Wind_Speed
50 45 61 59 49 60 56 67 39 65 32 57 67 67 55 20 10 12 13 18 18 20 21 25 22 22 31 29 34 39 45 50 51 53 50 37 41 43 37 44 37 35 40 42 43
34 47 34 43 35 54 36 43 51 37 36 36 49 48 45 65 40 13 10 14 17 17 20 18 20 16 19 23 27 32 38 41 42 43 45 45 42 42 47 46 39 37 41 46 46
47 51 54 57 60 32 40 53 52 68 60 71 29 46 39 67 62 60 22 12 18 20 21 19 17 19 17 19 21 25 28 34 37 41 44 46 47 47 46 46 44 43 42 48 49
50 43 56 48 50 59 60 26 60 60 58 62 63 50 65 55 46 34 63 61 17 19 20 22 23 21 19 21 21 23 28 31 33 38 42 44 45 48 47 47 47 43 31 48 37
50 48 55 51 42 41 57 61 45 64 60 63 35 39 53 44 62 60 53 59 53 34 20 23 24 25 25 25 22 26 25 25 28 34 34 39 44 46 48 48 49 47 45 45 52
40 51 52 51 46 42 29 58 62 31 64 45 40 63 60 64 43 47 59 53 50 56 44 67 48 25 26 24 26 26 26 30 25 25 31 39 38 39 44 46 47 50 48 42 42
49 48 49 52 49 56 59 46 53 61 60 60 62 55 63 64 52 46 60 23 55 45 46 47 65 47 25 27 28 27 28 25 31 23 25 34 31 42 41 41 46 48 51 51 42
49 34 45 41 54 30 54 59 59 59 55 54 63 63 35 27 51 35 30 60 59 50 49 42 55 34 57 49 27 28 26 26 26 29 30 29 29 33 28 38 52 53 52 54 55
45 36 52 39 31 36 57 37 29 61 63 59 60 61 56 35 47 42 30 48 51 44 47 43 43 47 67 62 61 30 30 31 30 30 30 35 31 35 43 42 35 43 43 55 57
44 36 28 47 53 56 55 57 52 60 62 46 64 65 40 62 56 42 55 17 60 47 44 51 49 49 38 55 45 47 25 32 35 34 33 36 36 38 36 41 37 35 37 34 37
49 49 52 28 49 53 52 45 60 58 44 40 59 52 53 35 51 48 53 63 51 57 59 53 35 27 57 44 29 63 55 33 25 35 40 38 40 41 39 40 43 46 42 41 49
36 49 51 53 31 36 56 28 37 61 63 63 47 57 64 47 64 60 43 53 55 52 69 30 29 54 32 61 79 39 61 53 39 34 32 42 43 43 45 44 44 44 47 48 48
37 33 49 57 41 57 48 58 51 55 52 57 64 59 53 67 56 41 56 34 56 41 56 59 55 57 33 53 55 76 57 59 51 44 38 35 40 48 48 48 48 48 48 51 51
48 52 50 53 34 31 61 62 34 43 48 61 60 58 56 48 51 42 49 49 69 52 52 53 66 60 62 39 33 76 55 52 55 51 47 41 36 41 45 52 53 50 50 51 50
39 45 40 53 57 45 61 53 65 52 66 56 56 65 67 53 54 68 47 62 77 59 63 59 35 73 60 34 32 77 81 57 59 56 51 48 42 36 39 44 47 50 52 50 50
54 52 38 50 44 58 35 44 64 66 52 68 68 59 69 37 52 44 64 69 41 64 63 60 74 35 66 66 78 73 83 57 62 60 55 52 49 42 36 41 40 43 50 52 52
58 55 59 54 64 65 55 62 40 68 57 62 55 46 57 56 35 70 51 65 48 69 58 66 53 58 52 64 67 59 83 79 62 60 60 56 52 49 39 39 42 37 37 40 44
31 62 49 37 62 66 63 40 70 65 59 58 56 57 55 54 56 73 66 67 71 69 90 65 56 56 64 94 69 83 81 81 70 62 59 59 55 49 43 38 43 39 38 40 42
63 47 67 65 68 68 70 72 62 68 63 63 65 70 71 81 59 85 71 48 68 80 71 74 65 61 69 61 58 66 84 76 71 66 60 59 59 48 45 38 40 42 37 39 39
66 47 71 72 68 64 71 68 63 70 64 63 71 68 64 76 56 61 59 61 61 67 73 51 66 94 88 71 63 87 85 82 72 63 57 57 59 49 45 39 39 40 39 38 40
58 41 74 68 74 71 72 75 75 73 71 67 71 66 57 66 66 62 81 46 69 47 49 87 60 95 64 65 94 72 88 87 71 65 60 56 57 53 42 35 38 38 35 35 34
73 71 78 78 80 79 77 82 76 76 75 73 72 74 78 72 75 62 89 49 94 61 32 88 93 67 95 100 77 96 91 86 77 65 61 56 51 52 43 32 36 35 33 31 28
81 80 79 80 78 82 78 83 59 78 77 74 75 67 71 75 77 74 80 65 73 62 44 103 81 70 96 92 101 95 91 86 75 64 60 58 48 51 42 35 33 32 31 31 28
76 83 84 77 79 79 79 80 83 81 74 77 79 74 71 81 63 68 89 82 98 76 60 82 68 83 64 101 112 88 92 86 74 64 57 51 44 51 41 36 32 32 30 30 26
84 84 86 80 83 84 87 82 82 81 82 71 77 76 81 70 70 61 105 85 58 72 66 84 75 103 60 101 117 100 92 82 74 69 57 43 47 42 42 37 31 30 30 28 25
83 75 86 82 90 88 82 82 81 70 74 81 78 76 90 68 57 68 90 61 60 70 88 76 115 101 55 116 109 99 94 79 71 65 58 49 43 38 33 35 33 29 30 28 26
91 81 83 90 86 85 78 84 82 74 80 81 77 79 59 89 89 71 90 66 85 101 97 80 90 118 109 76 102 90 89 73 72 63 55 46 38 35 33 32 32 31 30 29 28
Wind_Direction
17 12 17 12 5 14 1 14 350 12 29 13 26 28 33 3 311 271 284 269 271 280 281 286 291 282 256 255 253 251 250 250 252 252 251 243 244 243 237 246 237 231 241 245 246
357 15 351 354 20 14 11 345 357 328 323 330 7 33 39 17 35 354 313 298 288 293 287 295 295 297 288 270 261 255 249 254 252 248 250 251 246 245 248 245 241 233 237 246 247
8 11 12 11 8 16 5 13 5 7 3 12 340 23 29 18 36 22 19 311 318 306 306 311 302 299 288 283 274 269 265 260 257 252 252 253 251 248 247 245 242 242 238 246 248
3 354 9 11 11 8 8 3 11 9 8 8 7 358 16 21 31 30 24 44 325 311 321 313 322 311 296 286 278 273 267 264 263 254 253 252 253 244 252 251 248 241 249 243 245
359 5 4 6 359 359 14 6 14 7 7 8 337 4 19 18 12 16 21 29 25 11 324 325 317 313 307 298 284 279 277 274 264 259 258 252 249 250 252 252 253 252 252 245 249
6 0 3 4 5 360 345 5 9 359 7 356 344 4 13 15 29 15 17 20 16 30 20 41 29 316 306 302 300 295 279 277 275 264 259 255 254 254 250 251 250 250 249 250 245
353 360 2 359 358 360 3 7 5 11 8 7 5 2 359 2 5 359 5 26 21 19 6 36 36 36 314 309 302 300 300 291 273 274 265 258 261 255 252 255 250 248 246 248 247
353 343 357 6 355 351 358 357 1 8 5 7 4 2 17 328 5 349 328 6 4 9 14 11 28 9 25 13 303 304 305 298 286 275 272 263 266 258 259 254 245 247 248 245 245
341 339 349 344 348 347 354 359 337 358 10 3 1 357 2 353 6 8 345 9 1 12 3 8 8 7 19 17 17 296 300 299 295 287 276 265 260 262 252 252 253 250 251 247 246
343 335 351 358 348 349 352 347 351 358 4 2 354 356 1 354 357 6 0 352 2 358 2 4 1 359 3 6 2 7 305 294 292 292 284 281 272 261 259 257 257 257 254 256 257
342 342 339 328 356 353 345 2 347 349 355 356 356 1 4 354 360 6 22 359 353 357 20 355 343 311 13 359 346 7 5 341 333 288 283 279 275 272 268 254 254 253 254 254 249
344 336 335 334 322 341 339 331 343 341 345 346 357 355 354 351 347 347 1 352 358 10 20 327 298 353 322 0 9 351 4 358 340 330 288 274 274 269 269 267 262 257 252 253 252
321 336 335 336 334 333 343 343 342 338 347 346 342 358 352 342 351 355 352 331 14 336 347 343 352 346 325 352 355 5 359 358 348 337 330 291 273 263 267 266 265 265 261 256 252
323 328 322 325 341 320 337 335 334 344 335 341 351 338 359 350 346 353 10 341 355 1 350 352 8 341 359 340 326 358 353 350 351 340 334 325 296 275 265 262 265 264 265 266 261
330 330 329 321 321 323 330 330 332 331 335 331 331 348 337 336 359 336 7 347 8 345 333 350 303 3 343 330 280 355 0 346 351 345 334 330 325 293 275 266 263 264 265 266 267
328 317 319 321 333 327 312 320 333 333 327 325 333 341 331 337 336 346 334 335 339 357 347 344 351 313 353 344 350 351 353 346 348 346 338 330 327 320 287 273 267 263 262 265 266
315 318 323 327 325 328 330 323 318 329 329 328 326 326 336 333 323 331 328 6 330 346 327 342 344 336 335 331 337 336 351 354 349 343 338 331 327 321 305 283 277 270 269 270 273
310 313 325 307 309 311 313 306 321 319 318 331 328 322 337 325 326 346 325 350 1 358 358 335 338 336 331 350 340 346 346 349 349 346 336 329 325 319 314 284 275 275 272 272 274
301 304 315 304 321 308 320 311 314 319 314 316 326 318 316 344 338 353 319 338 329 359 335 348 328 339 328 328 332 333 343 345 343 342 336 331 326 322 316 291 278 275 273 273 275
305 313 303 309 303 324 320 307 320 314 311 312 313 323 319 318 326 330 339 344 328 319 328 330 327 348 344 333 333 343 341 343 342 335 334 328 321 317 316 303 282 276 277 277 280
308 313 300 311 300 300 305 313 314 312 313 309 308 313 321 317 319 325 347 311 339 323 334 344 334 343 323 329 343 328 339 341 338 335 329 327 319 316 320 299 282 278 276 278 283
301 292 301 300 301 301 301 306 306 311 305 316 312 312 310 318 330 302 344 309 346 312 303 341 342 323 339 339 334 341 338 338 338 331 325 327 314 320 315 297 280 275 275 278 277
294 295 302 292 294 297 299 300 303 309 309 310 315 314 322 323 333 314 340 320 336 313 331 340 330 324 337 340 339 335 336 337 332 324 322 324 309 312 311 306 279 268 269 272 272
297 294 295 296 294 296 301 306 303 307 308 309 311 309 310 318 309 313 337 340 341 327 326 327 333 336 328 343 339 329 334 333 327 325 322 317 315 303 312 299 276 263 264 265 271
285 286 293 292 293 300 301 300 307 306 307 305 308 306 303 306 311 321 334 339 324 311 317 327 333 338 324 338 335 332 331 329 326 323 321 306 307 305 299 294 282 254 256 258 265
283 301 287 305 295 302 301 303 303 304 306 307 306 313 329 307 309 300 334 329 307 326 333 310 333 336 321 337 331 330 328 326 321 315 312 311 301 295 286 284 273 250 248 251 256
288 289 292 296 297 298 303 301 301 303 301 304 306 319 303 327 327 298 323 305 320 330 331 312 324 331 336 320 329 324 324 319 320 310 308 305 297 289 282 274 259 246 244 247 251